Location: Ergnies
(50.0854°N, 2.0375°E)
Time: 14:07:00
(UTC+00:00)

Molniya-1 - Visible Passes

Search period start: 19 April 2026 00:00
Search period end: 29 April 2026 00:00
Orbit: 356 x 13511 km, 62.9° (Epoch: 19 April)

Date Brightness Start Highest point End Pass type
(mag) Time Alt. Az. Time Alt. Az. Time Alt. Az.
19 Apr 7.3 03:26:23 10° NW 03:36:01 76° NE 04:27:34 10° SE visible
19 Apr 4.1 20:15:27 15° SSE 20:17:21 29° ESE 20:21:51 10° NE visible
20 Apr 7.0 00:36:07 10° NW 00:41:51 39° NNE 01:01:47 10° E visible
20 Apr 4.6 21:44:55 10° WSW 21:48:00 53° NNW 21:55:56 10° NE visible
21 Apr 7.2 02:07:04 10° NW 02:15:05 57° NE 02:53:21 10° ESE visible
21 Apr 6.5 23:16:22 10° WNW 23:20:43 35° N 23:33:18 10° ENE visible
22 Apr 7.3 03:37:47 10° NW 03:48:10 86° NE 04:44:12 10° SSE visible
22 Apr 3.4 20:25:45 10° SSW 20:28:25 55° ESE 20:34:13 10° NE visible
23 Apr 7.1 00:47:37 10° NW 00:54:02 43° NNE 01:18:48 10° E visible
23 Apr 5.4 21:56:26 10° W 21:59:48 41° NNW 22:08:45 10° NE visible
24 Apr 7.2 02:18:24 10° NW 02:27:08 65° NE 03:11:40 10° SE visible
24 Apr 6.8 23:27:54 10° WNW 23:32:49 35° N 23:48:07 10° ENE visible
25 Apr 7.4 03:49:05 10° NW 04:00:16 84° SW 04:59:26 10° SSE visible
25 Apr 3.5 20:36:48 10° SW 20:39:37 86° NW 20:46:26 10° NE visible
26 Apr 7.1 00:58:56 10° NW 01:06:04 49° NNE 01:36:31 10° ESE visible
26 Apr 6.0 22:07:54 10° W 22:11:38 36° N 22:21:53 10° NE visible
27 Apr 7.2 02:29:37 10° NW 02:39:04 74° NE 03:29:16 10° SE visible
27 Apr 6.9 23:39:15 10° NW 23:44:49 38° NNE 00:03:43 10° E visible
28 Apr 4.5 20:47:58 10° WSW 20:50:59 57° NNW 20:58:41 10° NE visible
